Weather in Tugnuy

Russia / Republic of Buryatia     51°12′53″N   108°06′46″E
temp.,
°C
wind,
m/s
gust,
m/s
humid.,
%
clouds,
%
prec.,
mm/h
press.,
hPa
HPBL,
m
11 april, sun
sun1123:00−1ne2251100 0.0 1028184
02:00−2nnw2553100 0.0 1029637
05:00−4nnw2657100 0.0 1030689
08:00−4nnw5752100 0.0 10321433
11:00−2nnw783115 0.0 10321770
14:00−1nw892714 0.0 10322032
17:00−2nnw892818 0.0 10322012
20:00−5nnw34435 0.0 103593
12 april, mon
mon1223:00−6nw27490 0.0 1036593
02:00−6w25520 0.0 1037404
05:00−8w23551 0.0 1037112
08:00−5w36505 0.0 1036634
11:00−1w563499 0.0 10331334
14:00+2w5724100 0.0 10291753
17:00+3wnw7927100 0.0 10262217
20:00−2nw33535 0.0 102731
13 april, tue
tue1323:00−3wnw116635 0.0 102710
02:00−4wnw11765 0.0 102712
05:00−5wsw11805 0.0 102714
08:00−3sw22705 0.0 1026272
11:00+2wsw564744 0.0 10221403
14:00+6wsw584299 0.0 10171766
17:00+7wnw6840100 0.0 10141766
20:00+3wnw3669100 0.0 1016148
14 april, wed
wed1423:00+2wnw3781100 0.1 1017463
02:000nw4978100 0.4 1018757
05:00−1nw3873100 0.0 1018617
08:00−1nw3767100 0.0 1019967
11:00+1nnw7943100 0.1 10181907
14:00+3nw81034100 0.1 10162660
17:00+2nw8113394 0.1 10152569
20:00−1wnw36501 0.1 1016104
15 april, thu
thu1523:00−2w496429 0.0 1016628
02:00−2w41079100 0.1 1015684
05:00−3wnw9167381 1.8 10141175
08:00−3wnw8156648 2.5 10151379
11:00−1nw9114683 0.0 10161920
14:00+1nw101246100 0.3 10162273
17:00+1nnw8103990 0.3 10162167
20:00−3nw48602 0.3 1019201